Hourly Weather Roundup
Issued by NWS Central Illinois

Home | Current Version | Previous Version | Graphics & Text | Print | Product List | Glossary On
Versions: 1 2 3 4 5 6 7 8 9 10 11 12 13 14 15 16 17 18 19 20 21 22 23 24 25 26 27 28 29 30 31 32 33 34 35 36 37 38 39 40 41 42 43 44 45 46 47 48 49 50
811
NZUS43 KILX 272010
HWRILX

Area Weather Roundup
National Weather Service Lincoln IL
300 PM CDT THU APR 27 2017

NOTE:  "FAIR" indicates few or no clouds below 12,000 feet, with
       no sigificant weather and/or obstructions to visibility.


CITY           SKY/WX    TMP DP  RH WIND       PRES   REMARKS
Bloomington    CLOUDY    46  39  76 SW17      29.74R
Champaign      CLOUDY    49  42  77 SW20      29.76R
Danville       CLOUDY    49  43  79 W17G23    29.73R
Decatur        CLOUDY    49  42  77 W16       29.77R
Effingham      CLOUDY    52  46  77 SW12      29.81R
Flora          CLOUDY    55  45  70 W8        29.81S
Galesburg      CLOUDY    46  38  75 W14       29.73R
Jacksonville   CLOUDY    52  41  67 W12       29.76S
Lacon          CLOUDY    46  39  78 W12G17    29.73R
Lawrenceville  CLOUDY    56  46  69 W16       29.80R
Litchfield     CLOUDY    50  42  73 W13       29.79S
$$


CITY           SKY/WX    TMP DP  RH WIND       PRES   REMARKS
Lincoln        CLOUDY    49  41  73 SW6       29.76S
Macomb         CLOUDY    48  41  76 W16G22    29.76R
Mattoon        CLOUDY    50  43  77 W10G21    29.77R
Mt Carmel AP   CLOUDY    55  46  72 W15G22    29.79S
Olney-Noble AP CLOUDY    53  49  84 W9G16     29.80S
Paris AP       CLOUDY    50  45  84 W15       29.79R
Peoria         CLOUDY    47  38  71 W13G22    29.74R
Pontiac        CLOUDY    48  42  80 W16       29.73R
Rantoul        CLOUDY    49  44  84 W17G23    29.76R
Robinson       CLOUDY    52  46  79 W14G23    29.80S
Springfield    CLOUDY    52  42  69 W17G23    29.77S
Taylorville    CLOUDY    47  40  75 W14G23    29.79R
$$

...REGIONAL REPORTS...


CITY           SKY/WX    TMP DP  RH WIND       PRES   REMARKS
Chicago O`Hare CLOUDY    46  37  71 W20G28    29.66R
Kankakee       CLOUDY    48  40  73 SW14G21   29.73R
Moline         CLOUDY    45  33  63 W18G28    29.72R
Mount Sterling CLOUDY    52  40  65 W14       29.75S
Mount Vernon   CLOUDY    56  45  66 SW10      29.81R
Pittsfield     CLOUDY    53  41  63 W10G18    29.78S
Quincy         CLOUDY    53  40  61 W15G23    29.74F
Rockford       DRIZZLE   43  36  76 W16G25    29.68R
$$


CITY           SKY/WX    TMP DP  RH WIND       PRES   REMARKS
Burlington     CLOUDY    49  40  71 W16G23    29.73R
Cedar Rapids   CLOUDY    42  35  76 W21       29.68R WCI  33
Des Moines     PTSUNNY   52  33  48 W9        29.70S
Kirksville     PTSUNNY   55  41  59 SW12G18   29.73F
Ottumwa        CLOUDY    50  38  63 W12       29.71S
St Louis       MOSUNNY   58  41  53 SW12      29.79S
$$


CITY           SKY/WX    TMP DP  RH WIND       PRES   REMARKS
Terre Haute    CLOUDY    53  44  71 W14       29.78R
Evansville     CLOUDY    61  48  62 W8        29.81R
Indianapolis   CLOUDY    57  45  64 SW15      29.75R
Lafayette      CLOUDY    49  44  83 W13G22    29.74R
Madison        LGT RAIN  42  36  79 VRB6G17   29.59R
Milwaukee      CLOUDY    44  37  76 SW16G25   29.60R
$$






USA.gov is the U.S. government's official web portal to all federal, state and local government web resources and services.